This is the latest recevied weather packets stored in our database for station/object AI5YA-13. If no packets are shown the sender has not sent any weather packets the latest 10 day(s).
| Time | Temp. | Humidity | Pressure | Rain* | Wind** | Luminosity | Snow |
|---|---|---|---|---|---|---|---|
| 1777843493 | 24.44° C | 36% | 1017 hPa | 0 mm | - | 341 W/m² | - |
| 1777843190 | 23.89° C | 37% | 1016.9 hPa | 0 mm | - | 495 W/m² | - |
| 1777842887 | 23.33° C | 39% | 1017.4 hPa | 0 mm | - | 376 W/m² | - |
| 1777842583 | 23.89° C | 37% | 1017.1 hPa | 0 mm | - | 334 W/m² | - |
| 1777842280 | 23.89° C | 37% | 1017.7 hPa | 0 mm | - | 455 W/m² | - |
| 1777841974 | 23.89° C | 38% | 1017.6 hPa | 0 mm | - | 439 W/m² | - |
| 1777841671 | 23.89° C | 38% | 1017.8 hPa | 0 mm | - | 555 W/m² | - |
| 1777841367 | 23.89° C | 38% | 1018 hPa | 0 mm | - | 636 W/m² | - |
| 1777841065 | 23.89° C | 37% | 1018 hPa | 0 mm | - | 553 W/m² | - |
| 1777840762 | 23.89° C | 38% | 1018.2 hPa | 0 mm | - | 374 W/m² | - |
| 1777840459 | 24.44° C | 38% | 1018.4 hPa | 0 mm | - | 382 W/m² | - |
| 1777840156 | 23.89° C | 38% | 1018.1 hPa | 0 mm | - | 429 W/m² | - |
| 1777839854 | 23.33° C | 39% | 1018.1 hPa | 0 mm | - | 619 W/m² | - |
| 1777839552 | 23.89° C | 38% | 1018.4 hPa | 0 mm | - | 645 W/m² | - |
| 1777839249 | 23.33° C | 40% | 1018.6 hPa | 0 mm | - | 719 W/m² | - |
| 1777838947 | 23.89° C | 38% | 1018.7 hPa | 0 mm | - | 657 W/m² | - |
| 1777838340 | 23.33° C | 38% | 1018.7 hPa | 0 mm | - | 702 W/m² | - |
| 1777838036 | 23.33° C | 38% | 1018.9 hPa | 0 mm | - | 702 W/m² | - |
| 1777837733 | 23.89° C | 37% | 1019.1 hPa | 0 mm | - | 737 W/m² | - |
| 1777837429 | 23.89° C | 38% | 1019.1 hPa | 0 mm | - | 751 W/m² | - |
| 1777837126 | 23.89° C | 38% | 1018.9 hPa | 0 mm | - | 728 W/m² | - |
| 1777836821 | 23.33° C | 39% | 1019.1 hPa | 0 mm | - | 698 W/m² | - |
| 1777836517 | 22.78° C | 40% | 1019.1 hPa | 0 mm | - | 634 W/m² | - |
| 1777836213 | 23.33° C | 39% | 1019.5 hPa | 0 mm | - | 777 W/m² | - |
| 1777835910 | 23.33° C | 40% | 1019.7 hPa | 0 mm | - | 762 W/m² | - |
* Rain latest hour (hover to see other rain measurements)
** Current wind speed in m/s (hover to see current wind gust speed)